Teterboro, NJ

9:56 AM EST on November 17, 2019 (GMT -0500)
Teterboro

Weather History for KTEB - October, 2019

Change the Weather History Date:

Sunday, October 20, 2019

  Actual Average Record
Temperature  
Mean Temperature 49 °F -  
Max Temperature 57 °F 61 °F 75 °F (2015)
Min Temperature 41 °F 42 °F 34 °F (2008)
Degree Days  
Heating Degree Days 16    
Moisture  
Dew Point 45 °F    
Average Humidity 79    
Maximum Humidity 94    
Minimum Humidity 42    
Precipitation  
Precipitation 0.43 in - - ()
Sea Level Pressure  
Sea Level Pressure 30.01 in    
Wind  
Wind Speed 3 mph ()    
Max Wind Speed 8 mph    
Max Gust Speed -    
Visibility 7.4 miles    
Events Rain    
Averages and records for this station are not official NWS values.
T = Trace of Precipitation, MM = Missing Value Source: Averaged Metar Reports

Daily Weather History Graph

Daily Weather History Graph

Search for Another Location

Airport or City:

Astronomy

Oct. 20, 2019 Rise Set
Actual Time 7:12 AM EDT 6:08 PM EDT
Civil Twilight 6:44 AM EDT 6:36 PM EDT
Nautical Twilight 6:13 AM EDT 7:08 PM EDT
Astronomical Twilight 5:41 AM EDT 7:40 PM EDT
Moon 11:13 PM EDT (10/20) 1:40 PM EDT (10/20)
Length of Visible Light 11h 51m
Length of Day
10h 55m
Waning Gibbous, 59% of the Moon is Illuminated
Oct 20
Waning Gibbous
Oct 21
Last Quarter
Oct 27
New
Nov 4
First Quarter
Nov 12
Full

Hourly Weather History & Observations

Time (EDT) Temp. Windchill Dew Point Humidity Pressure Visibility Wind Dir Wind Speed Gust Speed Precip Events Conditions
12:51 AM 48.0 °F - 42.1 °F 80% 30.03 in 10.0 mi Calm Calm - N/A   Clear
1:51 AM 46.9 °F - 41.0 °F 80% 30.04 in 10.0 mi Calm Calm - N/A   Clear
2:51 AM 46.9 °F - 41.0 °F 80% 30.03 in 10.0 mi Calm Calm - N/A   Clear
3:51 AM 45.0 °F - 41.0 °F 86% 30.02 in 10.0 mi Calm Calm - N/A   Clear
4:51 AM 44.1 °F - 34.0 °F 68% 30.02 in 10.0 mi Calm Calm - N/A   Clear
5:51 AM 42.1 °F 40.2 °F 23.0 °F 47% 30.02 in 10.0 mi NNW 3.5 mph - N/A   Clear
6:51 AM 41.0 °F - 21.9 °F 47% 30.02 in 10.0 mi Calm Calm - N/A   Clear
7:51 AM 43.0 °F 40.3 °F 21.9 °F 43% 30.03 in 10.0 mi North 4.6 mph - N/A   Clear
8:14 AM 45.0 °F 42.6 °F 23.0 °F 42% 30.04 in 10.0 mi North 4.6 mph - N/A   Mostly Cloudy
8:51 AM 48.0 °F - 27.0 °F 44% 30.06 in 10.0 mi NNE 3.5 mph - N/A   Overcast
9:51 AM 50.0 °F - 36.0 °F 59% 30.05 in 10.0 mi NNE 3.5 mph - N/A   Overcast
10:51 AM 53.1 °F - 46.0 °F 77% 30.04 in 10.0 mi North 3.5 mph - N/A   Mostly Cloudy
11:51 AM 55.9 °F - 48.0 °F 75% 30.04 in 10.0 mi NNW 4.6 mph - N/A   Overcast
12:51 PM 57.0 °F - 50.0 °F 77% 30.04 in 9.0 mi North 3.5 mph - 0.01 in Rain Light Rain
12:58 PM 57.0 °F - 50.0 °F 77% 30.04 in 9.0 mi North 4.6 mph - 0.00 in Rain Light Rain
1:51 PM 55.9 °F - 52.0 °F 87% 30.03 in 6.0 mi North 4.6 mph - 0.03 in Rain Light Rain
1:59 PM 55.9 °F - 52.0 °F 87% 30.02 in 2.0 mi North 4.6 mph - 0.01 in Rain Light Rain
2:13 PM 55.9 °F - 52.0 °F 87% 30.02 in 4.0 mi North 4.6 mph - 0.02 in Rain Light Rain
2:51 PM 55.0 °F - 52.0 °F 89% 30.01 in 3.0 mi North 4.6 mph - 0.07 in Rain Rain
3:21 PM 55.0 °F - 52.0 °F 89% 30.01 in 2.0 mi NNE 6.9 mph - 0.06 in Rain Rain
3:51 PM 55.0 °F - 52.0 °F 89% 30.00 in 2.0 mi NNE 4.6 mph - 0.11 in Rain Rain
4:17 PM 55.0 °F - 53.1 °F 93% 29.99 in 2.0 mi North 5.8 mph - 0.03 in Rain Rain
4:51 PM 55.0 °F - 53.1 °F 93% 29.99 in 3.0 mi NNE 5.8 mph - 0.07 in Rain Light Rain
5:30 PM 55.9 °F - 53.1 °F 90% 29.99 in 3.0 mi NNE 3.5 mph - 0.04 in Rain Light Rain
5:49 PM 55.4 °F - 53.6 °F 94% 29.98 in 2.5 mi North 4.6 mph - 0.07 in Rain Light Rain
5:51 PM 55.0 °F - 53.1 °F 93% 29.99 in 2.5 mi North 4.6 mph - 0.07 in Rain Light Rain
6:24 PM 55.0 °F - 53.1 °F 93% 29.98 in 4.0 mi NNE 5.8 mph - 0.01 in Rain Light Rain
6:51 PM 55.0 °F - 53.1 °F 93% 29.99 in 8.0 mi NE 4.6 mph - 0.03 in Rain Light Rain
7:51 PM 55.0 °F - 51.1 °F 86% 29.98 in 10.0 mi NE 4.6 mph - 0.01 in   Overcast
8:51 PM 54.0 °F - 51.1 °F 90% 29.99 in 10.0 mi NE 4.6 mph - 0.00 in   Overcast
9:51 PM 54.0 °F - 50.0 °F 86% 29.99 in 10.0 mi NE 4.6 mph - 0.02 in Rain Light Rain
10:51 PM 54.0 °F - 48.9 °F 83% 29.99 in 10.0 mi NE 8.1 mph - 0.00 in Rain Light Rain
11:51 PM 53.1 °F - 48.9 °F 86% 29.99 in 10.0 mi North 4.6 mph - 0.01 in Rain Light Rain
11:58 PM 53.1 °F - 48.9 °F 86% 29.99 in 10.0 mi North 5.8 mph - 0.00 in   Overcast